Wetbulb
59.68 58.04 56.53 53.20 43.53 40.08 36.37 40.80 40.61 41.94 41.67 43.36 46.34 45.42 45.18 45.89 45.44 40.87 51.98 58.58 60.78 61.85 64.02 65.98 68.82 69.73 70.94 70.90 70.65 70.62 70.56 70.52 70.48 69.84 69.10 68.28 67.87 67.14 66.44 66.02 66.24 66.46 67.36 67.81 68.45 68.09 67.31 66.33 67.51
56.94 57.86 53.60 47.46 39.59 34.52 36.97 40.85 41.78 43.06 44.69 45.42 45.29 44.90 43.72 43.89 48.33 49.63 51.33 58.10 60.24 60.72 61.64 63.89 67.78 68.27 68.73 68.46 68.65 69.29 68.22 68.05 68.63 68.58 67.15 66.05 65.92 65.42 64.70 64.23 64.28 64.58 65.60 66.04 66.62 65.34 64.28 64.18 64.78
56.38 56.05 49.47 43.57 37.68 35.55 36.66 40.47 41.44 42.97 43.55 44.12 43.13 44.60 45.51 45.78 47.21 49.28 50.85 57.14 58.13 58.06 59.64 62.88 67.14 67.72 67.15 66.84 67.75 67.18 67.17 67.15 67.25 65.89 65.07 64.00 63.34 62.93 61.94 61.33 61.08 62.04 64.02 63.55 62.81 61.63 61.10 61.19 61.89
52.40 49.36 45.25 39.88 37.42 40.68 40.26 41.58 43.03 42.94 43.14 43.80 43.73 42.82 45.38 47.58 48.56 50.34 52.63 56.05 55.60 56.02 58.05 63.31 66.29 66.68 66.36 66.01 66.37 65.94 66.02 65.91 64.57 63.06 62.02 61.05 60.44 59.61 59.40 59.37 58.98 59.91 59.86 59.24 58.85 58.28 57.86 57.65 58.08
49.02 45.77 40.05 36.63 37.12 39.83 41.89 42.92 43.51 43.00 42.38 43.46 44.13 41.74 42.83 46.70 48.54 50.29 53.13 54.11 53.75 54.07 56.31 59.96 65.43 64.94 64.68 65.07 64.91 64.72 65.13 62.90 61.66 60.11 59.30 59.03 58.81 58.74 58.39 58.21 58.16 58.29 58.15 57.90 57.52 57.04 56.54 56.48 56.42
44.67 43.03 36.78 35.07 37.45 41.77 41.58 44.07 43.57 42.76 42.32 42.27 42.22 40.94 43.35 45.29 47.98 50.20 51.17 51.05 53.07 53.01 54.29 57.18 61.97 63.07 63.00 62.73 62.52 62.73 62.40 60.62 59.62 58.67 58.12 57.61 57.27 57.17 57.32 57.00 56.94 57.12 56.91 56.97 56.48 56.31 56.52 56.34 56.30
43.03 41.27 37.11 36.39 39.49 41.14 42.85 43.95 42.41 42.98 42.39 43.31 43.49 42.05 42.03 42.67 46.70 48.72 49.13 49.31 50.74 51.72 51.92 52.75 55.26 58.65 61.03 61.34 60.87 60.36 59.80 58.99 58.35 57.39 56.59 55.74 54.82 54.71 55.34 55.16 55.87 56.03 55.95 55.90 55.92 54.98 54.28 54.48 54.16
44.64 40.96 36.05 36.47 37.59 40.17 42.29 43.21 43.01 43.40 43.86 44.07 46.28 42.12 42.59 43.57 45.70 46.40 46.48 47.28 47.97 49.04 49.69 49.53 50.21 51.62 52.81 54.88 59.12 58.88 57.98 57.36 56.48 55.08 54.25 53.51 52.27 51.88 52.36 52.65 53.95 54.81 54.46 54.32 53.87 52.58 52.19 51.86 52.13
45.55 36.84 34.47 37.50 39.00 40.58 42.00 41.35 43.02 42.95 42.34 43.00 46.16 42.98 43.95 45.33 44.37 42.55 41.27 43.74 44.98 47.29 47.76 47.09 47.62 47.68 48.42 50.04 53.28 55.87 56.12 54.97 54.36 52.89 52.82 48.55 43.47 44.37 45.90 51.44 51.98 52.26 51.91 51.95 51.66 50.16 49.02 47.46 47.30
42.93 35.66 37.71 41.64 41.91 40.52 42.43 42.42 42.16 40.72 40.75 41.79 43.30 42.72 44.09 45.05 43.58 42.90 40.43 42.04 41.97 44.09 44.56 46.06 45.46 45.20 45.77 49.47 48.29 46.52 47.45 45.52 44.06 43.90 43.85 41.65 41.03 41.87 45.19 48.20 49.11 48.44 48.11 48.63 48.84 47.56 45.63 42.61 39.26
43.10 39.45 42.67 44.62 44.10 43.84 42.69 41.18 43.44 41.63 40.55 42.72 43.44 43.37 42.62 41.72 42.60 42.83 42.50 42.97 44.24 44.19 43.91 44.98 44.70 43.91 43.97 45.64 43.50 42.05 42.31 41.49 42.13 40.93 41.62 40.99 41.43 41.13 39.41 38.70 38.26 37.81 40.65 37.18 38.81 37.78 37.71 37.39 37.59
40.53 44.30 44.24 46.07 45.56 43.68 42.15 42.70 42.01 42.28 46.25 45.71 45.22 44.32 42.51 41.89 42.41 42.63 42.13 42.03 40.86 40.09 42.54 43.65 43.10 43.65 42.43 41.02 42.09 40.56 40.69 40.08 39.76 39.93 40.99 39.35 37.93 37.33 37.06 36.69 36.12 35.55 35.42 34.73 35.13 35.57 36.23 36.19 37.18
42.60 43.60 45.26 45.91 45.48 43.77 43.72 43.40 42.29 41.97 44.42 45.28 44.93 43.57 43.16 43.19 43.20 43.88 44.18 42.95 40.94 40.09 41.46 41.83 41.55 42.93 42.61 40.09 40.78 39.92 39.66 40.46 39.62 38.79 40.18 39.26 37.22 36.29 36.30 35.71 35.17 34.01 34.41 34.15 33.84 34.35 34.62 34.88 35.83
42.56 43.45 44.07 44.16 44.53 43.77 43.02 41.55 42.36 46.27 43.35 44.32 44.48 43.02 42.39 43.75 43.52 43.07 41.08 42.18 41.36 41.92 41.22 41.66 41.70 41.92 41.63 40.26 40.36 40.52 39.58 39.40 38.82 37.39 38.12 38.66 37.10 35.79 35.74 34.90 34.58 33.64 33.64 33.59 33.77 33.37 33.25 33.21 34.35
43.73 41.23 41.98 43.77 43.15 42.44 42.23 39.93 39.94 46.86 42.73 43.66 43.75 42.99 42.75 43.46 43.85 43.17 44.27 43.76 43.23 43.08 42.07 40.63 41.80 41.50 40.72 40.57 40.34 39.75 39.84 39.88 38.81 37.43 37.05 37.71 36.80 35.50 34.78 34.37 33.54 33.10 33.35 33.30 33.06 32.94 32.77 32.27 33.45
38.68 37.33 34.96 40.01 41.03 41.53 42.17 37.68 43.39 44.26 43.05 43.24 42.40 42.96 41.99 43.74 43.74 45.39 45.48 44.53 43.96 43.70 41.79 41.44 42.99 41.43 40.86 40.61 39.90 39.95 39.22 38.73 38.59 36.96 35.95 36.58 36.22 35.28 33.82 33.31 32.91 32.85 32.52 32.20 31.77 31.47 30.88 30.70 30.92
33.22 31.00 32.60 38.01 42.01 40.84 39.20 37.56 43.68 42.95 41.33 41.77 42.35 41.01 43.27 43.67 42.58 44.75 45.23 44.40 44.04 44.22 42.74 41.09 41.58 40.77 40.70 39.85 39.31 38.88 38.32 37.97 37.55 35.56 35.04 35.08 35.56 34.92 33.35 32.70 32.39 32.61 31.86 31.42 32.16 30.38 30.15 29.37 29.86
30.91 30.41 33.38 34.50 38.37 37.39 36.62 37.95 42.77 42.76 40.77 40.15 40.81 41.15 40.56 43.31 45.82 47.07 44.78 45.17 44.91 44.44 43.02 41.94 41.35 40.76 40.42 39.30 37.30 36.29 36.00 35.57 35.79 35.60 35.05 34.49 34.40 34.32 32.62 32.02 32.05 32.09 31.12 30.71 30.50 29.56 29.81 29.31 29.03
33.31 32.71 32.41 36.62 39.31 37.33 37.12 39.18 41.68 44.28 42.16 40.16 41.30 43.36 43.42 41.39 46.49 46.38 43.77 44.38 43.74 43.32 41.84 41.03 40.08 39.60 39.80 38.08 36.86 36.66 36.85 35.85 33.61 33.82 35.43 34.21 33.95 33.50 32.01 31.16 31.16 31.09 30.04 29.79 29.77 29.35 28.56 28.24 28.42
36.48 35.17 35.10 38.76 40.66 36.61 37.66 38.07 41.36 42.09 43.59 44.30 43.40 43.91 44.02 45.43 46.52 46.61 41.70 41.52 42.92 42.83 41.80 40.77 40.22 39.11 39.95 39.97 39.79 37.98 37.85 33.06 36.30 35.19 34.58 34.88 33.80 32.85 31.83 30.91 30.09 29.87 28.98 29.11 28.84 28.93 27.29 27.61 27.55
35.20 34.12 35.53 35.02 36.55 35.66 34.18 35.13 36.10 39.02 42.71 44.55 44.91 45.11 45.63 44.94 45.27 46.72 40.44 40.36 42.30 42.21 40.61 39.96 40.00 39.16 40.20 39.95 38.05 32.64 32.90 31.70 31.13 32.81 33.35 33.59 33.52 32.23 31.68 30.61 29.80 28.97 28.88 27.74 27.76 27.51 27.36 26.31 26.16
34.33 38.27 37.72 36.03 31.14 30.14 33.62 29.58 34.01 36.54 38.42 40.16 42.16 43.29 44.23 45.08 45.85 46.06 40.37 38.96 40.59 42.02 40.92 40.30 40.08 39.27 39.94 38.51 37.17 36.64 35.71 35.29 36.23 35.85 33.04 31.40 32.40 31.60 31.21 30.62 29.56 28.67 28.29 27.46 27.56 28.22 26.86 26.54 25.27
37.00 37.33 35.50 32.75 29.72 28.18 30.30 27.66 32.13 37.08 36.78 38.53 41.84 42.28 43.66 45.26 43.93 43.76 41.14 41.62 41.53 41.24 39.78 39.83 39.30 38.78 39.44 37.59 37.60 36.89 36.06 36.33 32.27 31.13 30.50 30.91 30.83 31.14 30.39 29.99 28.59 27.73 27.57 27.63 27.71 26.98 26.63 26.47 25.68
36.70 34.12 32.91 29.86 28.93 27.31 30.89 30.58 30.61 31.92 36.57 37.99 41.32 43.17 43.87 44.75 45.91 41.19 40.23 39.51 38.31 37.90 38.68 38.94 38.05 37.72 38.19 36.67 36.73 36.52 36.09 31.86 29.86 30.10 31.14 30.53 30.46 30.02 29.74 29.52 28.04 27.24 27.38 27.18 27.11 26.79 26.44 25.97 25.85
34.74 31.41 24.33 21.68 20.72 24.98 31.40 28.23 35.46 35.87 37.79 39.34 40.60 41.20 43.00 44.13 44.52 37.45 38.01 38.02 38.02 36.79 37.22 37.52 37.09 36.32 36.71 35.70 36.40 36.24 36.00 33.43 32.91 31.62 32.00 30.49 29.47 28.91 29.00 28.62 27.24 27.09 26.55 26.83 26.60 25.84 25.62 25.68 25.08
32.59 33.43 24.88 16.68 22.50 29.13 26.45 25.16 32.99 38.73 40.62 40.60 40.77 41.96 42.50 39.68 38.95 39.41 38.48 38.67 37.33 37.12 36.78 36.99 36.17 36.52 36.09 35.42 36.29 36.46 36.26 34.92 33.83 32.46 32.76 31.95 31.51 31.06 29.90 28.80 27.57 26.32 26.41 25.73 25.60 24.92 24.78 24.52 25.16
30.69 28.66 36.03 25.51 12.81 17.91 28.05 32.15 37.74 35.85 37.65 38.18 39.08 39.73 36.76 37.73 38.29 38.77 36.85 36.69 36.61 36.84 36.89 37.08 35.81 36.83 36.07 35.90 36.23 35.56 35.13 34.62 33.55 32.16 31.94 31.99 31.27 30.58 28.13 28.23 26.97 26.06 25.52 25.12 24.28 23.81 23.69 23.87 24.46
33.52 34.62 26.86 26.20 17.95 14.93 25.52 26.81 31.90 36.50 38.44 38.40 37.66 37.77 37.91 37.63 37.54 37.95 36.85 36.21 35.54 35.68 36.04 35.79 36.20 36.45 35.98 35.57 35.79 35.34 34.41 34.37 33.81 30.57 29.85 29.87 29.51 28.62 27.14 26.84 26.18 24.82 24.64 24.20 23.31 23.04 23.40 22.85 23.04
28.77 28.68 29.37 30.12 29.07 26.12 24.83 29.45 40.21 38.10 36.59 35.25 37.97 38.01 37.53 37.41 37.20 37.69 38.11 36.91 35.60 34.51 34.53 35.13 34.91 35.30 34.95 34.57 35.24 35.02 33.51 32.71 32.99 30.07 29.74 28.53 27.66 27.40 26.59 26.50 25.26 24.46 23.83 23.47 22.44 22.13 22.12 21.71 21.79
32.65 33.09 34.00 28.96 27.29 29.66 30.00 30.28 42.06 42.03 41.51 41.42 41.86 38.77 38.02 37.22 37.90 38.01 37.97 37.28 35.95 35.33 34.86 35.53 35.74 35.27 35.75 35.33 34.05 33.49 32.13 31.07 31.41 29.45 28.81 27.57 27.24 26.80 26.34 25.50 24.79 23.96 23.27 22.46 22.03 21.06 21.62 20.43 20.36
MSLP
1015.74 1015.82 1015.98 1016.31 1018.00 1018.57 1017.66 1016.14 1014.92 1014.50 1014.28 1014.24 1014.35 1014.65 1015.12 1015.67 1016.55 1017.92 1017.36 1017.31 1017.50 1017.82 1017.95 1018.00 1018.07 1017.91 1018.04 1018.23 1018.36 1018.55 1018.73 1018.83 1018.94 1019.08 1019.37 1019.59 1019.73 1019.97 1020.05 1020.06 1020.06 1019.94 1019.76 1019.62 1019.66 1019.78 1019.92 1019.82 1019.63
1015.88 1015.74 1016.34 1017.40 1018.50 1018.76 1017.35 1015.72 1014.91 1014.35 1014.13 1014.21 1014.44 1014.76 1015.28 1015.89 1016.46 1017.23 1017.64 1017.53 1017.40 1017.69 1017.92 1018.07 1018.02 1018.01 1018.15 1018.35 1018.53 1018.61 1018.81 1018.96 1019.21 1019.38 1019.76 1020.00 1020.04 1020.11 1020.18 1020.33 1020.31 1020.21 1020.02 1020.00 1020.04 1020.04 1020.19 1020.21 1020.06
1015.96 1016.13 1017.32 1018.03 1018.74 1018.34 1016.84 1015.39 1014.74 1014.46 1014.37 1014.35 1014.65 1014.80 1015.36 1015.74 1016.38 1016.75 1016.67 1017.14 1017.49 1017.82 1017.94 1018.03 1018.10 1018.17 1018.33 1018.67 1018.80 1019.03 1019.11 1019.31 1019.48 1019.74 1020.08 1020.35 1020.49 1020.61 1020.58 1020.58 1020.54 1020.34 1020.37 1020.52 1020.60 1020.63 1020.57 1020.43 1020.33
1016.11 1016.82 1018.01 1018.35 1018.35 1017.25 1015.93 1014.86 1014.70 1014.72 1014.45 1014.38 1014.62 1015.17 1015.44 1015.52 1015.89 1016.09 1016.54 1017.03 1017.55 1017.89 1018.03 1018.11 1018.12 1018.20 1018.44 1018.68 1018.81 1019.07 1019.32 1019.45 1019.83 1020.02 1020.28 1020.48 1020.60 1020.68 1020.74 1020.79 1020.76 1020.67 1020.76 1020.77 1020.75 1020.77 1020.78 1020.68 1020.56
1016.68 1017.60 1018.32 1018.39 1017.54 1016.18 1014.89 1014.33 1014.55 1014.70 1014.47 1014.46 1014.66 1015.16 1015.55 1015.48 1015.74 1016.20 1016.76 1017.25 1017.52 1018.07 1018.06 1018.14 1018.18 1018.30 1018.50 1018.66 1018.87 1019.05 1019.18 1019.56 1019.94 1020.19 1020.36 1020.54 1020.76 1020.87 1020.85 1020.88 1020.76 1020.67 1020.81 1020.88 1020.94 1020.92 1020.87 1020.79 1020.60
1017.43 1017.98 1018.59 1018.18 1016.74 1015.25 1014.27 1013.97 1014.43 1014.52 1014.37 1014.50 1014.95 1015.42 1015.63 1015.72 1016.07 1016.48 1016.88 1017.40 1017.60 1018.07 1018.25 1018.28 1018.28 1018.39 1018.50 1018.63 1018.82 1018.98 1019.22 1019.52 1019.80 1019.98 1020.19 1020.44 1020.65 1020.80 1020.76 1020.83 1020.88 1020.93 1021.00 1020.97 1021.09 1021.04 1020.99 1020.97 1020.81
1017.44 1018.27 1018.05 1017.21 1016.03 1014.84 1013.75 1013.58 1014.13 1014.06 1014.15 1014.22 1014.35 1015.35 1015.71 1016.21 1016.20 1016.45 1016.90 1017.41 1017.79 1018.10 1018.43 1018.52 1018.58 1018.65 1018.68 1018.81 1018.96 1019.11 1019.37 1019.61 1019.81 1019.96 1020.24 1020.56 1020.80 1021.08 1021.05 1021.03 1021.07 1021.05 1021.09 1021.15 1021.12 1021.27 1021.29 1021.29 1021.26
1017.19 1018.12 1017.78 1016.61 1015.47 1014.28 1013.31 1013.44 1013.22 1013.64 1013.74 1013.71 1014.00 1014.80 1015.22 1015.23 1016.15 1016.83 1017.42 1017.80 1018.07 1018.24 1018.44 1018.72 1018.84 1018.89 1018.94 1019.03 1019.13 1019.30 1019.44 1019.67 1019.89 1020.20 1020.45 1020.73 1020.95 1021.27 1021.22 1021.20 1021.14 1021.16 1021.25 1021.34 1021.32 1021.47 1021.41 1021.44 1021.55
1016.88 1017.74 1017.50 1016.10 1014.81 1013.84 1013.30 1013.44 1013.20 1013.16 1013.47 1013.77 1013.89 1014.26 1014.55 1014.89 1016.30 1017.17 1017.90 1018.38 1018.45 1018.41 1018.43 1018.63 1018.85 1019.04 1019.18 1019.33 1019.42 1019.57 1019.71 1019.91 1020.17 1020.42 1020.63 1020.84 1021.26 1021.28 1021.36 1021.25 1021.40 1021.38 1021.55 1021.68 1021.61 1021.86 1021.94 1022.06 1022.10
1017.10 1017.64 1016.42 1014.85 1013.93 1013.53 1013.27 1013.32 1013.21 1013.45 1013.46 1013.76 1013.89 1014.25 1014.95 1015.46 1016.25 1016.77 1017.13 1017.59 1017.98 1018.11 1018.26 1018.38 1018.68 1018.89 1019.22 1019.31 1019.58 1019.86 1019.97 1020.16 1020.36 1020.50 1020.69 1020.97 1021.08 1021.25 1021.42 1021.68 1021.86 1021.99 1022.09 1022.08 1022.00 1022.07 1022.19 1022.10 1022.05
1016.58 1016.48 1015.41 1014.27 1013.73 1013.42 1013.29 1013.27 1013.11 1013.34 1013.40 1013.08 1013.35 1013.98 1015.14 1015.73 1016.09 1016.27 1016.41 1016.33 1016.19 1017.12 1017.80 1017.97 1018.23 1018.64 1019.00 1019.13 1019.62 1020.00 1020.11 1020.25 1020.32 1020.48 1020.65 1020.95 1021.21 1021.50 1021.81 1022.07 1022.43 1022.49 1022.59 1022.49 1022.30 1022.36 1022.14 1022.24 1022.35
1016.11 1015.13 1014.86 1013.99 1013.47 1013.45 1013.40 1013.21 1013.21 1013.14 1011.82 1011.97 1012.36 1012.99 1014.32 1015.02 1015.32 1015.30 1015.51 1015.61 1015.98 1016.39 1016.71 1017.27 1017.74 1018.22 1018.69 1019.05 1019.48 1019.76 1020.04 1020.26 1020.41 1020.43 1020.64 1021.05 1021.49 1021.73 1021.98 1022.11 1022.39 1022.51 1022.64 1022.53 1022.62 1022.52 1022.45 1022.42 1022.45
1015.34 1014.64 1014.36 1013.73 1013.68 1013.53 1013.47 1013.24 1013.27 1012.15 1011.59 1011.99 1012.24 1012.75 1013.38 1013.89 1013.99 1014.15 1014.22 1014.80 1015.41 1015.76 1016.06 1016.50 1017.14 1017.61 1018.08 1018.67 1019.09 1019.56 1019.83 1020.12 1020.25 1020.52 1020.51 1020.77 1021.24 1021.55 1021.79 1022.10 1022.17 1022.40 1022.37 1022.52 1022.63 1022.68 1022.60 1022.49 1022.48
1014.60 1014.52 1014.19 1013.79 1013.71 1013.67 1013.77 1013.14 1013.30 1010.33 1011.04 1011.59 1011.98 1012.22 1012.56 1012.73 1012.52 1013.32 1013.71 1013.75 1014.20 1014.58 1015.04 1015.77 1016.42 1016.92 1017.49 1018.04 1018.52 1018.94 1019.40 1019.76 1020.11 1020.25 1020.35 1020.52 1020.76 1021.23 1021.55 1021.91 1022.14 1022.37 1022.32 1022.43 1022.53 1022.61 1022.52 1022.40 1022.47
1014.82 1014.91 1014.26 1013.23 1013.23 1013.61 1013.60 1013.28 1012.40 1009.83 1011.11 1011.33 1011.37 1011.29 1011.55 1011.39 1012.01 1011.69 1011.15 1011.95 1012.34 1012.92 1013.89 1014.64 1015.40 1016.18 1016.79 1017.34 1017.91 1018.43 1018.78 1019.20 1019.61 1019.83 1020.15 1020.25 1020.52 1020.84 1021.26 1021.67 1022.08 1022.23 1022.33 1022.55 1022.55 1022.58 1022.55 1022.75 1022.57
1015.52 1015.51 1015.04 1012.78 1012.95 1013.07 1013.44 1011.83 1010.20 1010.18 1011.00 1010.88 1010.70 1010.84 1010.95 1010.39 1010.26 1009.85 1010.11 1010.60 1011.36 1012.23 1012.76 1013.52 1014.36 1015.15 1015.90 1016.57 1017.23 1017.83 1018.36 1018.83 1019.10 1019.48 1019.88 1020.08 1020.45 1020.67 1021.17 1021.68 1022.09 1022.26 1022.47 1022.40 1022.53 1022.75 1023.02 1023.08 1023.00
1016.27 1015.77 1015.13 1013.45 1012.63 1013.00 1013.16 1011.84 1009.70 1009.79 1010.52 1010.44 1010.27 1010.12 1010.00 1009.58 1009.18 1008.77 1009.00 1009.47 1010.05 1010.60 1011.57 1012.51 1013.19 1013.94 1014.88 1015.87 1016.66 1017.25 1017.79 1018.30 1018.66 1019.18 1019.64 1019.90 1020.30 1020.53 1020.97 1021.41 1021.79 1021.99 1022.14 1022.27 1022.27 1022.77 1022.97 1023.06 1022.86
1015.66 1015.99 1015.11 1014.30 1012.79 1013.05 1012.88 1011.51 1010.08 1009.66 1010.19 1010.05 1009.91 1009.43 1009.06 1008.70 1007.26 1007.12 1007.57 1008.08 1008.84 1009.57 1010.34 1011.20 1012.14 1013.06 1014.10 1015.23 1016.31 1017.18 1017.70 1018.03 1018.29 1018.71 1019.17 1019.56 1019.92 1020.25 1020.64 1021.10 1021.47 1021.81 1022.14 1022.39 1022.64 1022.93 1023.12 1023.20 1023.04
1015.44 1015.34 1015.04 1013.72 1012.82 1012.98 1012.23 1011.33 1010.51 1009.45 1009.29 1009.14 1008.97 1008.32 1007.78 1007.21 1005.34 1006.19 1006.56 1007.21 1008.14 1008.99 1009.69 1010.30 1011.20 1011.99 1013.19 1014.37 1015.41 1016.49 1016.65 1017.39 1017.94 1018.24 1018.47 1019.04 1019.44 1019.81 1020.36 1020.84 1021.30 1021.71 1022.04 1022.26 1022.60 1023.04 1023.36 1023.46 1023.15
1015.23 1015.08 1014.24 1012.97 1012.43 1012.76 1011.83 1010.21 1009.52 1009.23 1008.02 1007.45 1007.42 1006.66 1005.97 1005.49 1005.12 1005.02 1005.46 1006.43 1007.03 1007.40 1008.06 1009.08 1009.84 1010.91 1011.65 1012.70 1013.65 1014.75 1015.64 1016.50 1016.94 1017.44 1017.93 1018.30 1018.84 1019.32 1019.87 1020.32 1020.90 1021.28 1021.72 1022.06 1022.48 1022.80 1023.42 1023.71 1023.62
1014.14 1014.60 1013.33 1013.19 1012.89 1012.28 1011.47 1008.48 1008.85 1008.08 1006.85 1006.02 1005.33 1004.84 1004.60 1004.24 1003.91 1003.68 1004.90 1005.41 1006.01 1006.65 1007.20 1007.80 1008.56 1009.49 1010.38 1011.49 1012.98 1014.25 1015.36 1016.24 1016.83 1017.00 1017.42 1017.75 1018.25 1018.86 1019.29 1019.86 1020.51 1021.04 1021.38 1021.88 1022.25 1022.60 1022.88 1023.40 1023.82
1013.38 1012.83 1013.15 1013.36 1013.76 1012.96 1012.03 1004.99 1007.11 1007.13 1006.28 1005.35 1004.35 1003.54 1003.39 1003.20 1002.85 1002.92 1003.58 1004.38 1005.00 1005.24 1006.22 1007.09 1007.91 1008.80 1009.88 1010.89 1011.94 1012.69 1013.18 1014.39 1014.63 1015.52 1016.63 1017.45 1017.91 1018.40 1018.81 1019.31 1019.94 1020.62 1021.18 1021.60 1021.89 1022.32 1022.57 1022.52 1023.25
1012.11 1012.22 1012.91 1013.40 1013.69 1013.12 1012.16 1011.16 1006.22 1005.45 1005.34 1004.58 1003.51 1002.94 1002.41 1001.74 1001.88 1001.97 1002.36 1002.99 1003.35 1004.51 1005.20 1006.20 1007.30 1008.26 1008.98 1010.05 1010.76 1011.80 1012.67 1013.31 1013.89 1015.01 1016.14 1017.05 1017.67 1017.98 1018.49 1019.00 1019.62 1020.20 1020.71 1021.10 1021.44 1021.81 1022.03 1022.04 1022.65
1012.41 1012.95 1013.36 1014.09 1014.31 1012.22 1011.16 1010.76 1002.81 1004.94 1003.96 1003.21 1002.60 1002.09 1001.70 1001.12 1000.66 1000.92 1001.57 1002.37 1003.38 1004.18 1004.93 1005.82 1006.61 1007.42 1008.40 1009.51 1010.36 1010.98 1011.74 1012.68 1013.71 1014.52 1015.34 1016.23 1017.08 1017.70 1018.01 1018.58 1019.18 1019.78 1020.39 1020.92 1021.35 1021.74 1021.96 1022.06 1022.25
1012.55 1013.64 1014.80 1014.92 1015.02 1011.40 1009.21 1008.64 1002.83 1003.64 1002.74 1002.39 1002.06 1001.43 1000.70 1000.48 1000.25 1001.46 1001.80 1002.45 1002.82 1003.59 1004.20 1004.99 1005.97 1006.90 1007.63 1008.53 1009.22 1009.74 1010.49 1011.29 1012.02 1012.99 1013.89 1015.03 1015.98 1016.63 1017.26 1017.88 1018.60 1019.17 1019.76 1020.45 1021.08 1021.62 1021.97 1022.14 1022.37
1011.77 1012.76 1013.57 1013.45 1012.67 1010.33 1009.66 1006.21 1002.44 1001.58 1001.17 1001.15 1000.91 1001.02 1000.75 1000.35 1000.27 1000.58 1001.09 1001.61 1002.57 1003.35 1004.23 1004.74 1005.29 1006.12 1006.97 1007.61 1008.02 1008.88 1009.67 1010.31 1011.17 1012.07 1012.79 1013.50 1014.28 1015.19 1016.11 1017.03 1017.82 1018.50 1019.16 1019.81 1020.39 1020.93 1021.38 1021.81 1022.43
1011.22 1011.74 1011.20 1012.11 1011.56 1011.08 1007.50 1004.26 1002.55 1001.71 1001.43 1001.65 1001.21 1000.95 1000.97 1000.58 1000.54 1000.72 1001.38 1001.69 1001.98 1002.53 1002.94 1003.91 1004.94 1005.62 1005.93 1006.75 1007.68 1008.27 1008.95 1009.55 1010.21 1011.08 1012.01 1012.71 1013.48 1014.39 1015.57 1016.45 1017.44 1018.19 1018.97 1019.56 1020.09 1020.44 1020.88 1021.25 1021.67
1010.61 1010.52 1011.05 1011.75 1011.99 1009.86 1006.63 1004.53 1001.93 1001.71 1001.22 1001.21 1001.56 1001.03 1000.65 1000.75 1001.07 1001.03 1000.97 1001.59 1002.05 1002.45 1003.03 1003.58 1004.12 1004.81 1005.41 1006.24 1006.70 1007.24 1008.01 1008.74 1009.59 1010.57 1011.20 1011.97 1012.84 1013.74 1014.86 1015.71 1016.69 1017.61 1018.37 1019.10 1019.64 1020.17 1020.58 1021.13 1021.51
1010.86 1010.29 1010.45 1010.11 1009.50 1007.75 1005.84 1003.77 1000.16 1000.84 1000.89 1000.87 1000.94 1001.10 1000.98 1000.82 1000.72 1000.54 1000.89 1001.57 1002.15 1002.48 1002.83 1003.29 1003.67 1004.36 1004.94 1005.37 1006.04 1006.70 1007.06 1007.86 1008.75 1009.63 1010.48 1011.24 1012.21 1012.91 1013.99 1014.83 1015.79 1016.73 1017.53 1018.42 1019.14 1019.65 1020.21 1020.60 1021.18
1010.30 1009.58 1009.11 1008.42 1007.03 1005.76 1004.42 1002.71 1000.91 999.54 999.81 1000.16 1000.19 1000.64 1000.12 1000.00 1000.49 1000.59 1000.54 1001.23 1002.04 1001.91 1002.43 1002.40 1002.61 1003.15 1003.03 1003.77 1005.04 1005.66 1006.48 1007.21 1007.97 1008.67 1009.38 1010.32 1011.23 1012.15 1012.85 1013.93 1014.94 1015.97 1016.95 1017.87 1018.58 1019.18 1019.55 1019.85 1020.51
Wind_Speed
4 3 2 5 5 5 4 6 2 2 1 2 2 4 7 3 5 6 2 7 11 8 6 6 7 10 15 15 13 12 12 12 14 14 12 10 9 8 7 7 7 6 6 8 9 10 11 8 9
2 1 5 3 5 2 6 6 6 5 5 5 2 4 1 3 3 5 6 8 11 9 7 6 9 10 10 11 7 10 8 7 10 13 11 8 8 8 8 8 8 8 6 7 10 8 8 9 9
2 2 4 5 3 5 5 5 6 2 3 4 3 2 6 4 3 9 6 11 10 8 6 6 10 13 12 12 9 11 10 9 10 10 11 11 11 11 11 10 9 9 11 10 10 9 9 10 10
3 5 5 4 6 8 6 5 5 5 2 1 3 2 2 1 6 9 10 12 10 7 6 8 13 14 14 13 13 12 12 12 12 12 12 11 11 10 11 11 11 11 10 10 10 10 9 9 10
4 3 3 1 5 6 6 3 9 5 4 4 5 3 3 3 2 9 11 10 12 7 7 6 13 15 15 14 14 14 14 14 14 13 13 13 12 12 12 11 12 12 11 10 10 10 9 9 10
4 4 2 4 6 5 4 6 6 5 3 3 3 3 4 1 8 9 9 9 8 9 6 6 10 13 14 15 15 15 15 14 14 14 14 13 13 12 12 11 11 11 11 11 10 11 11 11 12
5 4 5 4 6 6 6 8 5 7 6 6 3 6 2 3 7 8 9 9 8 7 7 5 5 7 11 12 13 15 14 14 14 14 14 14 13 11 11 11 11 11 11 11 12 12 11 12 12
5 4 3 4 3 6 2 5 2 6 8 1 8 7 7 7 9 7 7 7 7 7 7 7 5 5 5 6 11 13 15 15 15 14 14 14 13 12 11 9 10 11 11 11 12 12 12 13 13
3 3 3 6 3 4 1 3 1 1 3 3 6 4 3 8 11 8 5 5 5 7 8 7 7 6 5 5 6 10 14 15 15 13 12 10 5 6 6 9 10 11 10 10 11 11 11 11 11
4 4 9 6 2 4 3 5 4 2 3 4 5 1 4 12 13 14 11 13 8 11 9 9 7 7 7 6 6 6 6 5 5 5 6 4 5 5 5 6 9 9 8 9 10 11 11 9 4
5 7 6 6 4 4 3 3 5 5 7 10 11 7 8 6 13 15 15 15 20 12 9 12 11 9 8 7 4 3 3 3 4 7 6 5 4 4 3 3 3 3 5 3 5 5 4 6 4
4 10 7 6 3 3 4 1 5 9 18 6 12 7 10 14 17 18 17 17 14 14 15 13 12 11 9 5 6 5 4 4 3 5 6 5 3 4 4 3 4 3 1 4 3 3 4 5 5
7 6 6 7 7 6 3 10 8 11 13 10 7 8 16 16 19 16 16 11 10 14 15 15 13 13 11 9 6 5 5 5 5 5 6 5 5 5 5 4 4 3 3 3 3 3 3 4 4
3 4 7 6 7 5 5 7 5 20 4 13 11 13 13 19 22 15 10 15 17 16 17 15 15 14 12 10 10 8 6 6 5 5 5 7 5 5 5 4 4 3 3 3 3 3 3 4 4
4 8 8 11 7 10 6 10 14 27 3 10 12 12 13 20 12 22 23 21 20 17 15 18 17 14 14 13 10 8 8 7 7 6 7 7 7 7 6 5 4 4 3 4 3 3 3 4 3
4 2 5 0 6 4 10 17 14 10 8 16 13 12 10 16 21 22 19 17 17 15 18 17 16 17 16 14 10 8 7 7 7 6 5 7 6 7 6 5 4 4 3 3 3 3 2 2 3
2 7 9 15 11 6 8 12 13 6 9 12 12 11 13 15 13 17 17 17 17 20 18 19 19 19 17 12 9 8 9 7 6 5 5 7 7 7 6 5 4 5 4 3 2 2 2 2 3
9 6 6 9 3 4 8 16 16 9 8 12 11 11 11 15 24 18 17 18 16 18 18 18 17 17 16 10 6 4 5 5 6 6 6 8 6 7 6 5 5 5 4 3 2 2 2 1 3
2 6 7 9 6 5 11 18 20 21 11 13 15 19 17 16 24 12 11 14 14 14 16 19 19 18 15 10 10 8 12 8 5 6 9 9 8 7 7 5 5 5 5 5 4 2 3 4 4
12 17 22 18 20 7 16 24 17 14 20 19 17 20 22 18 20 17 10 11 17 20 21 20 21 20 17 13 11 7 9 4 7 7 8 10 10 8 7 7 6 6 5 5 4 4 2 2 4
13 14 19 18 6 6 11 22 16 12 21 23 22 21 20 21 21 21 10 13 14 17 20 21 23 22 20 17 9 4 5 3 4 7 7 8 10 8 8 8 6 6 5 5 5 5 5 4 2
16 14 15 14 2 11 3 32 7 8 15 13 17 18 19 20 21 18 10 10 14 19 17 19 19 20 18 17 15 17 11 11 10 9 5 6 9 9 8 8 7 7 4 6 5 4 4 5 4
14 5 6 3 5 5 7 11 6 12 12 14 17 14 17 20 15 19 15 14 15 14 17 17 18 18 18 18 17 15 13 9 3 5 9 8 8 9 9 9 8 7 5 6 7 6 6 3 4
2 3 4 5 2 15 13 12 5 7 11 7 10 16 16 18 21 11 9 7 8 9 13 15 18 18 17 17 16 18 18 9 7 8 10 8 7 7 9 9 8 7 6 6 5 5 6 5 4
4 6 5 5 1 15 9 10 21 6 6 12 13 14 15 16 16 5 9 10 12 16 16 15 18 18 17 19 19 19 18 16 17 13 12 12 9 8 11 10 9 7 7 7 6 6 5 5 4
11 12 9 10 12 19 4 13 13 13 11 10 12 13 14 11 8 10 11 10 11 14 14 15 17 17 18 18 20 16 16 11 11 13 10 11 11 11 12 11 10 9 9 7 7 5 5 5 4
4 8 16 2 1 2 8 15 14 6 8 8 11 13 12 13 9 10 6 8 10 14 18 18 16 15 17 18 15 16 14 15 14 13 11 10 9 9 10 12 11 10 9 9 8 6 6 6 5
8 4 3 1 4 8 11 7 16 16 14 10 10 12 12 9 10 8 5 8 7 7 8 10 13 18 14 15 15 15 15 15 13 9 13 12 10 11 12 13 12 11 10 9 9 6 5 6 4
1 4 5 3 6 15 18 16 28 16 9 8 11 10 9 10 10 8 7 6 6 6 8 11 12 13 12 14 15 15 14 14 13 12 12 12 11 13 13 14 13 13 12 10 8 7 7 7 6
4 12 13 13 14 12 17 18 28 31 25 18 24 14 7 6 9 8 7 7 8 8 10 15 15 16 19 16 14 15 11 12 14 13 14 13 14 13 14 14 14 13 11 10 10 9 8 8 7
Wind_Direction
321 355 55 38 44 58 273 267 218 169 117 261 124 155 177 123 163 208 249 144 139 141 143 140 157 137 140 139 133 130 131 130 123 110 97 87 90 99 94 81 76 72 52 43 57 56 39 25 23
333 81 43 78 87 30 269 256 201 208 175 141 102 103 66 203 139 150 131 186 145 145 146 156 158 139 153 157 154 156 144 138 111 107 107 125 119 110 97 88 74 60 59 58 43 36 33 25 18
289 41 83 102 122 197 229 238 206 233 182 167 104 19 158 205 179 177 213 147 137 141 148 158 160 160 155 164 141 147 146 136 125 119 123 116 113 109 103 94 82 71 69 59 55 44 31 22 16
60 13 29 93 228 258 237 240 192 152 330 13 130 206 280 178 176 179 142 139 133 144 145 157 163 158 157 161 155 152 156 130 131 126 120 114 107 102 98 94 88 85 78 69 58 47 38 28 17
36 61 67 313 258 256 249 214 166 173 192 191 156 241 247 267 198 142 139 143 140 148 155 163 164 159 158 154 150 150 140 140 137 132 126 121 114 110 103 96 90 85 78 73 64 57 50 45 45
43 96 78 230 247 248 250 181 170 186 207 155 157 151 241 338 141 162 138 143 144 148 158 169 165 163 159 157 154 152 148 146 141 133 126 121 116 107 104 97 95 97 90 86 76 68 58 51 49
116 96 219 231 253 290 223 149 190 195 177 231 163 174 270 211 207 154 143 139 143 146 146 152 154 162 162 157 157 156 154 150 144 138 130 125 117 114 110 104 105 100 89 83 78 69 63 54 47
108 98 281 255 247 269 258 186 106 164 227 73 160 220 252 210 174 135 120 141 151 157 159 162 155 145 144 153 159 159 157 154 149 142 140 135 125 121 117 100 98 88 80 78 74 64 58 47 40
97 61 251 251 219 264 359 240 309 318 135 227 208 177 317 134 131 126 130 162 170 185 178 171 167 163 157 155 159 158 157 157 157 151 144 129 136 123 105 110 98 95 87 80 77 67 62 60 46
115 149 226 218 233 239 236 196 226 201 214 246 272 75 79 141 162 174 179 187 198 196 194 181 175 173 167 171 161 158 159 150 146 151 141 134 133 126 115 95 97 92 86 83 74 68 57 47 35
184 214 222 263 247 203 227 243 201 200 248 216 211 200 162 167 184 192 202 199 199 191 187 189 180 177 174 177 166 171 166 164 165 162 154 148 130 115 112 97 90 80 64 45 56 39 41 35 36
210 238 219 263 250 272 230 240 244 196 241 209 228 176 168 183 194 200 206 205 190 189 192 186 184 181 184 162 177 176 169 175 176 175 161 144 142 144 143 134 138 110 104 82 60 49 49 45 26
225 248 227 235 269 261 297 245 238 251 247 243 248 175 188 198 208 213 215 213 192 199 194 192 182 184 184 179 175 177 181 179 179 177 173 159 163 162 149 156 141 139 135 116 99 74 51 37 13
256 263 268 267 239 250 208 268 143 263 222 237 227 218 206 206 209 208 206 209 200 201 198 186 190 185 179 186 182 184 176 175 179 182 184 177 164 159 157 153 151 149 139 130 116 104 67 40 11
301 306 308 249 229 231 155 285 227 248 175 252 248 234 216 220 206 214 214 210 200 204 189 188 187 183 185 187 184 180 183 175 183 187 185 178 172 167 158 151 153 161 150 133 101 71 54 36 6
312 335 314 301 139 235 145 263 252 247 202 252 248 255 238 236 217 224 219 214 202 195 191 186 187 187 186 186 181 181 182 179 187 181 178 180 170 161 153 149 159 157 138 114 90 61 49 26 9
286 243 225 295 196 160 182 246 270 239 199 248 260 249 250 252 241 232 218 209 198 196 187 188 187 186 185 180 178 178 178 182 185 166 177 178 173 163 154 156 157 156 136 118 112 72 74 7 345
221 223 253 244 244 185 222 249 273 264 199 237 258 267 253 254 251 237 212 207 200 195 190 187 185 182 178 170 158 158 175 186 177 179 182 172 172 171 159 155 154 152 136 120 95 93 38 26 328
203 227 243 256 247 225 229 236 247 265 262 252 253 253 250 244 252 246 209 201 195 191 186 185 178 180 171 173 174 185 197 192 189 180 183 176 178 172 165 158 158 161 157 159 147 118 64 21 336
242 257 262 270 264 212 259 258 249 249 261 256 247 257 251 251 258 251 208 187 189 192 191 184 186 178 183 181 183 185 177 184 190 188 187 184 180 174 168 163 171 167 147 144 152 154 131 73 8
227 232 251 256 301 248 289 268 249 244 250 265 262 249 258 247 249 254 208 200 196 195 190 186 185 183 184 178 158 105 94 74 163 197 191 191 179 173 167 169 163 166 154 166 169 160 162 145 69
256 227 254 261 285 272 124 293 194 230 243 243 252 256 244 248 252 257 209 200 195 203 191 188 183 181 184 172 175 183 189 191 203 196 177 172 179 179 175 171 166 164 165 168 167 169 167 139 144
252 166 231 215 214 338 181 269 147 201 249 247 253 248 257 259 245 242 219 208 204 184 185 183 180 181 181 181 183 186 197 200 139 139 155 177 185 182 179 175 168 171 170 170 170 170 172 154 136
98 59 37 65 119 263 199 208 94 179 212 241 252 253 248 254 260 240 214 179 180 172 176 180 181 184 181 180 185 193 197 171 159 164 177 183 185 188 186 181 173 168 170 176 175 171 170 164 134
131 90 301 324 6 254 191 218 250 275 215 214 237 256 253 251 253 243 190 192 177 181 178 177 180 187 182 183 191 194 196 188 188 182 182 175 181 190 193 180 176 177 173 170 160 164 171 171 167
205 186 179 204 248 269 106 251 262 220 237 228 236 257 270 281 239 215 209 191 182 183 184 182 184 187 189 191 199 198 200 195 196 189 189 190 193 193 179 184 177 167 171 167 164 160 166 171 172
176 179 234 326 108 19 246 276 287 229 270 310 277 279 263 263 258 243 219 191 182 183 188 189 187 196 195 197 194 199 196 198 198 189 187 188 182 174 171 177 174 171 170 169 166 169 172 172 175
183 167 117 186 203 247 268 248 259 284 285 289 295 300 297 312 289 271 230 202 199 188 181 187 190 201 196 195 199 197 197 200 195 178 187 184 174 165 168 173 170 167 168 171 171 171 172 168 172
181 248 230 181 195 246 261 263 278 277 273 260 298 286 291 304 285 247 240 228 205 182 184 195 198 198 200 197 200 200 197 190 190 187 187 179 166 170 174 175 169 171 173 174 169 168 170 173 175
271 265 241 235 244 233 254 255 264 268 269 272 289 289 295 280 261 280 228 200 209 206 199 206 200 202 204 197 194 202 187 182 188 190 185 172 175 176 172 170 170 170 170 170 176 176 178 173 172